Zurück zum Katalog

SWOT

AktivWissenschaftLEO
NORAD 54754·PAYLOAD·🇺🇸 United States

Gestartet Dec 16, 2022 von Vandenberg Space Force Base

Loading…

Nächste Überflüge (nächste 24 Stunden)

TLE

AktuellSource: CelesTrak SupGP

Epoche: Sep 14, 2026, 00:00 UTC

1 54754C 22173A   26257.00000000  .00000034  00000+0  23283-4 0  2577
2 54754  77.6083 275.4181 0000198 204.3842  53.8160 14.00172311    11

Verfolge SWOT in Echtzeit mit AllMySat

Download on the App Store